COSMOS 249 DEB, 18549

Orbit data source: Space-Track

COSMOS 249 DEB, 18549 is space debris in LEO originally from a launch on Sun, 20 Oct 1968 UTC launched from the Tyuratam Missile And Space Complex (TTMTR). Debris objects in space refer to the collection of defunct objects orbiting the Earth. Examples of debris include non-operational satellites, rocket bodies, and fragments generated from explosions, collisions, or faulty payload assembly.

Loading next visibility...
Identifier
18549, 1968-091DE
Orbit
LEO
Country
Flag of CISCIS
Related business
Manufacturer
Unknown
Mission
Spacecraft
Bus & Motor
Unknown
Mass
Unknown
Launch date (UTC)
1968-10-20 (58 years ago)
Launch vehicle
Unknown
Launch site
Tyuratam Missile And Space Complex (TTMTR)
Object type
Payload
Rocket body
Debris
Shape & HBR
Unknown shape, 0.1 m
Radar Cross Section
Medium (>0.1 m² and <1 m²)

Expand to show TLE details & history
Last TLE update: 6 days ago

TLE from 6 days ago
0 COSMOS 249 DEB
1 18549U 68091DE  26248.16916052  .00001644  00000-0  20405-2 0  9991
2 18549  62.2216 299.1325 0643909 297.5885  88.2118 13.02897193639890
Epoch: 2026-09-05T04:03Z
TLE epoch observation values (Epoch: 2026-09-05T04:03:35.468Z)
Latitude
29.0195°
Longitude
-89.14456°
Altitude
1,269.395 km
Speed
7.216 km/s
True Right ascension
21h 04m 08s
True Declination
28° 53' 01"
Sunlit
Object was in full shadow at epoch
Visualization orbit readout
Latitude
Unknown
Longitude
Unknown
Altitude
Unknown
Speed
Unknown
Apparent Right ascension
Unknown
Apparent Declination
Unknown
Sunlit
N/A
Visualization observer readout
Local Sidereal Time
20:57:53
Azimuth
Unknown
Elevation
Unknown
Doppler factor
Unknown
Orbital elements
Apogee altitude
1,740.919 km
Perigee altitude
758.586 km
Semi-major axis
7,627.89 km
Eccentricity
0.06439
Inclination
62.2216°
RAAN
299.1325°
Arg. of periapsis
297.5885°
True anomaly
95.58502°
Mean anomaly
88.2118°
Eccentric anomaly
91.8991°
Mean motion
3.25789 °/min
Orbital period
110.5 mins
BSTAR
0.0020405
Loading maneuver chart data...
Computing Atmospheric mass density...

Documentation

Showing up to 5 results
|